Weather History for KDCU - July, 2013

Change the Weather History Date:

Friday, July 5, 2013

  Actual Average Record
Temperature  
Mean Temperature 73 °F -  
Max Temperature 77 °F 88 °F 103 °F (1954)
Min Temperature 69 °F 66 °F 55 °F (2014)
Cooling Degree Days 8    
Growing Degree Days 23 (Base 50)    
Moisture  
Dew Point 70 °F    
Average Humidity 92    
Maximum Humidity 100    
Minimum Humidity 82    
Precipitation  
Precipitation 0.28 in - - ()
Sea Level Pressure  
Sea Level Pressure 30.09 in    
Wind  
Wind Speed 7 mph (SE)    
Max Wind Speed 13 mph    
Max Gust Speed 20 mph    
Visibility 8 miles    
Events Rain    
Averages and records for this station are not official NWS values.
T = Trace of Precipitation, MM = Missing Value Source: NWS Daily Summary

Daily Weather History Graph

Daily Weather History Graph

Search for Another Location

Airport or City:

Trip Planner

Search our weather history database for the weather conditions in past years. The results will help you decide how hot, cold, wet, or windy it might be!

Date:

Astronomy

Jul. 05, 2013 Rise Set
Actual Time 5:40 AM CDT 8:04 PM CDT
Civil Twilight 5:11 AM CDT 8:33 PM CDT
Nautical Twilight 4:35 AM CDT 9:09 PM CDT
Astronomical Twilight 3:55 AM CDT 9:48 PM CDT
Moon 3:37 AM CDT (7/5) 6:00 PM CDT (7/5)
Length of Visible Light 15h 22m
Length of Day
14h 23m
Waning Crescent, 6% of the Moon is Illuminated
Jul 5
Waning Crescent
Jul 8
New
Jul 15
First Quarter
Jul 22
Full
Jul 29
Last Quarter

Hourly Weather History & Observations

Time (CDT) Temp. Dew Point Humidity Pressure Visibility Wind Dir Wind Speed Gust Speed Precip Events Conditions
12:53 AM 70.0 °F 69.1 °F 97% 30.05 in 10.0 mi SE 4.6 mph - N/A   Overcast
1:32 AM 69.8 °F 68.0 °F 94% 30.06 in 10.0 mi SSE 9.2 mph - N/A   Mostly Cloudy
1:53 AM 70.0 °F 68.0 °F 93% 30.04 in 9.0 mi SSE 8.1 mph - 0.00 in Rain Light Rain
2:53 AM 69.1 °F 68.0 °F 96% 30.04 in 8.0 mi SSE 8.1 mph - 0.10 in Rain Light Rain
3:53 AM 70.0 °F 68.0 °F 93% 30.04 in 10.0 mi SSE 4.6 mph - 0.00 in   Overcast
4:26 AM 69.8 °F 68.0 °F 94% 30.07 in 10.0 mi SSE 4.6 mph - N/A   Overcast
4:53 AM 70.0 °F 69.1 °F 97% 30.05 in 10.0 mi South 4.6 mph - N/A   Overcast
5:16 AM 69.8 °F 69.8 °F 100% 30.07 in 2.0 mi SSE 6.9 mph - 0.08 in Rain Heavy Rain
5:29 AM 69.8 °F 69.8 °F 100% 30.07 in 7.0 mi SSE 6.9 mph - 0.10 in Rain Light Rain
5:53 AM 70.0 °F 69.1 °F 97% 30.06 in 10.0 mi SSE 6.9 mph - 0.10 in   Overcast
6:29 AM 69.8 °F 69.8 °F 100% 30.08 in 3.0 mi SE 6.9 mph - N/A   Overcast
6:34 AM 69.8 °F 69.8 °F 100% 30.09 in 2.5 mi SSE 8.1 mph - N/A   Overcast
6:44 AM 69.8 °F 69.8 °F 100% 30.09 in 3.0 mi SSE 5.8 mph - N/A   Overcast
6:53 AM 71.1 °F 70.0 °F 96% 30.08 in 4.0 mi SSE 5.8 mph - N/A   Overcast
7:53 AM 73.0 °F 71.1 °F 93% 30.08 in 7.0 mi SE 8.1 mph - 0.00 in   Overcast
8:04 AM 73.4 °F 71.6 °F 94% 30.10 in 7.0 mi ESE 6.9 mph - N/A   Overcast
8:17 AM 71.6 °F 69.8 °F 94% 30.11 in 7.0 mi SE 6.9 mph - N/A   Overcast
8:53 AM 73.0 °F 70.0 °F 90% 30.11 in 9.0 mi SSE 9.2 mph - N/A   Overcast
9:53 AM 73.0 °F 71.1 °F 93% 30.11 in 10.0 mi SE 8.1 mph - N/A   Overcast
10:18 AM 73.4 °F 71.6 °F 94% 30.13 in 7.0 mi SE 8.1 mph - N/A   Overcast
10:44 AM 73.4 °F 71.6 °F 94% 30.13 in 6.0 mi ESE 5.8 mph - 0.00 in   Overcast
10:53 AM 73.0 °F 71.1 °F 93% 30.11 in 9.0 mi SE 6.9 mph - 0.00 in   Overcast
11:05 AM 73.4 °F 71.6 °F 94% 30.13 in 7.0 mi SE 5.8 mph - 0.01 in Rain Light Rain
11:53 AM 73.9 °F 72.0 °F 93% 30.12 in 7.0 mi SE 5.8 mph - 0.01 in Rain Light Rain
12:53 PM 77.0 °F 71.1 °F 82% 30.11 in 10.0 mi SSE 9.2 mph - 0.00 in   Overcast
1:06 PM 75.2 °F 71.6 °F 89% 30.12 in 10.0 mi SE 9.2 mph - N/A   Overcast
1:53 PM 77.0 °F 71.1 °F 82% 30.10 in 10.0 mi SE 6.9 mph - N/A   Overcast
2:05 PM 77.0 °F 71.6 °F 83% 30.11 in 10.0 mi SE 6.9 mph - N/A   Overcast
2:43 PM 77.0 °F 71.6 °F 83% 30.11 in 10.0 mi SE 8.1 mph - N/A   Overcast
2:53 PM 77.0 °F 71.1 °F 82% 30.09 in 10.0 mi SE 8.1 mph - N/A   Overcast
3:37 PM 75.2 °F 71.6 °F 89% 30.09 in 10.0 mi ESE 5.8 mph - N/A   Overcast
3:53 PM 75.0 °F 71.1 °F 87% 30.08 in 10.0 mi ESE 6.9 mph - N/A   Overcast
4:01 PM 73.4 °F 71.6 °F 94% 30.09 in 6.0 mi SE 6.9 mph - 0.00 in Rain Light Rain
4:22 PM 75.2 °F 71.6 °F 89% 30.09 in 10.0 mi SE 5.8 mph - 0.00 in   Mostly Cloudy
4:53 PM 73.9 °F 71.1 °F 91% 30.08 in 10.0 mi SE 9.2 mph - 0.00 in   Overcast
5:40 PM 75.2 °F 71.6 °F 89% 30.09 in 10.0 mi SE 5.8 mph - N/A   Scattered Clouds
5:53 PM 75.0 °F 71.1 °F 87% 30.07 in 10.0 mi SE 8.1 mph - N/A   Partly Cloudy
6:14 PM 75.2 °F 69.8 °F 83% 30.08 in 10.0 mi SE 9.2 mph - N/A   Mostly Cloudy
6:25 PM 73.4 °F 69.8 °F 88% 30.09 in 10.0 mi SE 9.2 mph - N/A   Scattered Clouds
6:53 PM 73.9 °F 70.0 °F 87% 30.07 in 10.0 mi ESE 6.9 mph - N/A   Overcast
7:53 PM 73.0 °F 71.1 °F 93% 30.08 in 10.0 mi East 3.5 mph - 0.02 in   Overcast
8:53 PM 73.0 °F 70.0 °F 90% 30.08 in 10.0 mi East 4.6 mph - 0.00 in Rain Light Rain
9:16 PM 71.6 °F 71.6 °F 100% 30.10 in 9.0 mi ESE 5.8 mph - 0.01 in Rain Light Rain
9:25 PM 71.6 °F 69.8 °F 94% 30.10 in 9.0 mi ESE 4.6 mph - 0.01 in Rain Light Rain
9:45 PM 71.6 °F 69.8 °F 94% 30.10 in 5.0 mi SSE 12.7 mph 19.6 mph 0.03 in Rain Light Rain
9:53 PM 71.1 °F 70.0 °F 96% 30.09 in 4.0 mi SE 6.9 mph - 0.05 in Rain Light Rain
10:53 PM 71.1 °F 70.0 °F 96% 30.10 in 10.0 mi SSE 4.6 mph - 0.00 in Rain Light Rain
11:14 PM 71.6 °F 69.8 °F 94% 30.11 in 10.0 mi SSE 4.6 mph - 0.00 in   Overcast
11:53 PM 71.1 °F 66.9 °F 87% 30.10 in 10.0 mi West 4.6 mph - 0.00 in   Overcast